N0PSJ Weather Reports


time (UTC)temp
C
wind
direction
speed
KPH
gust
KPH
rain 1hr
cm
rain 24hr
cm
rain mn
cm
humidity
%
barometer
mb
20260906213003 33 145 6.4 22.5 0.00 0.00 0.00 30 1000.5
20260906212503 33 136 9.7 20.9 0.00 0.00 0.00 29 1000.6
20260906212002 33 127 8.0 19.3 0.00 0.00 0.00 29 1000.7
20260906211503 33 170 6.4 29.0 0.00 0.00 0.00 30 1000.8
20260906211002 33 131 11.3 29.0 0.00 0.00 0.00 30 1000.8
20260906210503 33 168 4.8 19.3 0.00 0.00 0.00 31 1000.8
20260906210004 32 148 4.8 25.7 0.00 0.00 0.00 32 1000.8
20260906205503 33 140 17.7 25.7 0.00 0.00 0.00 31 1000.8
20260906205003 33 127 8.0 24.1 0.00 0.00 0.00 32 1000.8
20260906204502 33 126 11.3 19.3 0.00 0.00 0.00 32 1000.9
20260906204003 33 167 8.0 19.3 0.00 0.00 0.00 32 1000.9
20260906203524 33 139 9.7 22.5 0.00 0.00 0.00 32 1000.9
20260906203024 33 128 11.3 22.5 0.00 0.00 0.00 32 1000.9
20260906202502 33 134 8.0 25.7 0.00 0.00 0.00 32 1001.0
20260906202024 33 88 1.6 25.7 0.00 0.00 0.00 31 1001.2
20260906201503 34 107 4.8 17.7 0.00 0.00 0.00 30 1001.2
20260906201003 35 127 9.7 17.7 0.00 0.00 0.00 29 1001.3
20260906200503 34 168 4.8 16.1 0.00 0.00 0.00 30 1001.4
20260906200024 33 135 8.0 16.1 0.00 0.00 0.00 31 1001.4
20260906195503 34 141 4.8 16.1 0.00 0.00 0.00 31 1001.4
20260906195003 33 154 4.8 16.1 0.00 0.00 0.00 32 1001.5
20260906194503 33 107 6.4 19.3 0.00 0.00 0.00 32 1001.5
20260906194002 33 133 8.0 19.3 0.00 0.00 0.00 31 1001.5
20260906193546 33 121 8.0 22.5 0.00 0.00 0.00 31 1001.6
20260906193046 32 122 8.0 22.5 0.00 0.00 0.00 31 1001.8
20260906192525 33 121 9.7 19.3 0.00 0.00 0.00 32 1001.8
20260906192003 33 109 8.0 19.3 0.00 0.00 0.00 33 1002.0
20260906191503 32 95 4.8 16.1 0.00 0.00 0.00 34 1002.0
20260906191003 32 122 6.4 16.1 0.00 0.00 0.00 34 1002.0
20260906190503 32 67 4.8 16.1 0.00 0.00 0.00 34 1002.1
20260906190003 32 114 4.8 16.1 0.00 0.00 0.00 34 1002.3
20260906185503 32 121 6.4 16.1 0.00 0.00 0.00 33 1002.4
20260906185002 32 122 4.8 16.1 0.00 0.00 0.00 32 1002.5
20260906184503 32 128 3.2 12.9 0.00 0.00 0.00 34 1002.7
20260906184002 32 123 6.4 12.9 0.00 0.00 0.00 34 1002.8
20260906183503 32 138 1.6 12.9 0.00 0.00 0.00 34 1002.9
20260906183003 32 102 3.2 6.4 0.00 0.00 0.00 34 1003.1
20260906182503 32 103 1.6 11.3 0.00 0.00 0.00 34 1003.3
20260906182024 31 105 3.2 11.3 0.00 0.00 0.00 35 1003.4
20260906181502 31 98 1.6 11.3 0.00 0.00 0.00 35 1003.4
20260906181024 31 106 3.2 11.3 0.00 0.00 0.00 34 1003.5
20260906180502 31 110 1.6 14.5 0.00 0.00 0.00 35 1003.7
20260906180003 31 131 3.2 14.5 0.00 0.00 0.00 35 1003.8
20260906175502 31 116 1.6 11.3 0.00 0.00 0.00 35 1003.9
20260906175003 31 109 3.2 11.3 0.00 0.00 0.00 35 1004.1
20260906174503 31 109 1.6 9.7 0.00 0.00 0.00 36 1004.1
20260906174003 30 109 4.8 12.9 0.00 0.00 0.00 36 1004.3
20260906173503 30 104 4.8 12.9 0.00 0.00 0.00 36 1004.4
20260906173003 30 94 0.0 9.7 0.00 0.00 0.00 36 1004.4
20260906172502 30 109 0.0 9.7 0.00 0.00 0.00 36 1004.4
20260906172003 30 107 1.6 11.3 0.00 0.00 0.00 37 1004.4
20260906171502 30 88 4.8 11.3 0.00 0.00 0.00 36 1004.4
20260906171003 30 109 0.0 9.7 0.00 0.00 0.00 37 1004.5
20260906170545 30 111 3.2 9.7 0.00 0.00 0.00 37 1004.6
20260906170002 30 115 3.2 9.7 0.00 0.00 0.00 37 1004.5
20260906165524 30 107 3.2 6.4 0.00 0.00 0.00 38 1004.5
20260906165003 29 105 3.2 6.4 0.00 0.00 0.00 39 1004.6
20260906164545 28 106 0.0 11.3 0.00 0.00 0.00 40 1004.7
20260906164003 28 105 1.6 11.3 0.00 0.00 0.00 41 1004.7
20260906163503 28 110 4.8 9.7 0.00 0.00 0.00 41 1004.6
20260906163003 28 109 3.2 11.3 0.00 0.00 0.00 42 1004.8
20260906162503 27 115 3.2 11.3 0.00 0.00 0.00 43 1004.8
20260906162002 27 111 4.8 11.3 0.00 0.00 0.00 43 1004.8
20260906161503 27 132 0.0 6.4 0.00 0.00 0.00 45 1005.0
20260906161002 27 132 3.2 8.0 0.00 0.00 0.00 45 1004.9
20260906160503 27 132 3.2 8.0 0.00 0.00 0.00 44 1004.8
20260906160024 27 132 1.6 6.4 0.00 0.00 0.00 46 1004.9
20260906155503 27 132 1.6 8.0 0.00 0.00 0.00 45 1004.9
20260906155003 27 134 0.0 8.0 0.00 0.00 0.00 47 1005.0
20260906154503 26 134 0.0 4.8 0.00 0.00 0.00 47 1005.0
20260906154002 26 134 1.6 8.0 0.00 0.00 0.00 48 1004.9
20260906153503 26 135 0.0 8.0 0.00 0.00 0.00 49 1004.9
20260906153002 26 137 1.6 9.7 0.00 0.00 0.00 49 1004.9
20260906152503 25 133 3.2 9.7 0.00 0.00 0.00 49 1005.0
20260906152002 25 173 3.2 8.0 0.00 0.00 0.00 49 1005.1
20260906151503 25 141 3.2 8.0 0.00 0.00 0.00 49 1005.2
20260906151024 25 147 3.2 6.4 0.00 0.00 0.00 50 1005.2
20260906150502 25 108 3.2 6.4 0.00 0.00 0.00 50 1005.3
20260906150003 24 354 0.0 4.8 0.00 0.00 0.00 51 1005.3
20260906145524 23 354 3.2 4.8 0.00 0.00 0.00 52 1005.1
20260906145003 23 354 3.2 4.8 0.00 0.00 0.00 52 1005.2
20260906144503 23 354 3.2 4.8 0.00 0.00 0.00 53 1005.3
20260906144003 22 330 0.0 3.2 0.00 0.00 0.00 54 1005.2
20260906143502 22 331 0.0 4.8 0.00 0.00 0.00 55 1005.1
20260906143003 22 330 3.2 4.8 0.00 0.00 0.00 57 1005.0
20260906142502 21 330 0.0 0.0 0.00 0.00 0.00 58 1004.9
20260906142003 20 330 0.0 0.0 0.00 0.00 0.00 60 1005.0
20260906141502 20 330 0.0 0.0 0.00 0.00 0.00 62 1004.9
20260906141003 20 330 0.0 0.0 0.00 0.00 0.00 64 1004.9
20260906140502 19 330 0.0 0.0 0.00 0.00 0.00 64 1005.0
20260906140003 19 330 0.0 1.6 0.00 0.00 0.00 65 1004.9
20260906135502 18 330 0.0 1.6 0.00 0.00 0.00 67 1004.9
20260906135024 18 330 0.0 1.6 0.00 0.00 0.00 68 1004.8
20260906134502 18 330 0.0 0.0 0.00 0.00 0.00 68 1004.8
20260906134003 17 330 0.0 0.0 0.00 0.00 0.00 69 1004.8
20260906133545 17 330 0.0 0.0 0.00 0.00 0.00 70 1004.8
20260906133003 17 330 0.0 0.0 0.00 0.00 0.00 70 1004.7
20260906132003 17 330 0.0 3.2 0.00 0.00 0.00 69 1004.5
20260906131502 17 330 0.0 1.6 0.00 0.00 0.00 70 1004.4
20260906131003 17 330 0.0 3.2 0.00 0.00 0.00 71 1004.2
20260906130502 17 331 0.0 3.2 0.00 0.00 0.00 71 1004.2
20260906130003 17 331 0.0 0.0 0.00 0.00 0.00 71 1004.2
20260906125503 17 330 0.0 0.0 0.00 0.00 0.00 71 1004.1
20260906125024 17 330 0.0 1.6 0.00 0.00 0.00 71 1004.2
20260906124502 17 330 0.0 3.2 0.00 0.00 0.00 71 1004.1
20260906124003 17 330 1.6 3.2 0.00 0.00 0.00 70 1004.1
20260906123502 17 330 1.6 3.2 0.00 0.00 0.00 69 1004.1
20260906123024 17 330 1.6 4.8 0.00 0.00 0.00 68 1004.1
20260906122503 17 330 0.0 4.8 0.00 0.00 0.00 68 1004.0
20260906122002 17 329 1.6 4.8 0.00 0.00 0.00 69 1003.9
20260906121503 17 329 1.6 4.8 0.00 0.00 0.00 69 1003.9
20260906121003 17 329 1.6 4.8 0.00 0.00 0.00 69 1003.8
20260906120502 17 328 1.6 3.2 0.00 0.00 0.00 69 1003.8
20260906120003 17 328 1.6 6.4 0.00 0.00 0.00 71 1003.9
20260906115545 17 327 1.6 6.4 0.00 0.00 0.00 72 1003.8
20260906115003 17 326 3.2 6.4 0.00 0.00 0.00 72 1003.7
20260906114502 17 330 3.2 6.4 0.00 0.00 0.00 70 1003.6
20260906114003 17 332 3.2 6.4 0.00 0.00 0.00 69 1003.6
20260906113502 17 346 3.2 6.4 0.00 0.00 0.00 67 1003.7
20260906113003 18 14 3.2 4.8 0.00 0.00 0.00 66 1003.7
20260906112503 18 15 1.6 4.8 0.00 0.00 0.00 66 1003.7
20260906112023 18 15 1.6 4.8 0.00 0.00 0.00 65 1003.8
20260906111503 19 17 3.2 4.8 0.00 0.00 0.00 64 1003.6
20260906111023 20 17 1.6 3.2 0.00 0.00 0.00 64 1003.5
20260906110524 20 17 0.0 3.2 0.00 0.00 0.00 65 1003.5
20260906110003 20 17 0.0 3.2 0.00 0.00 0.00 65 1003.5
20260906105524 20 17 0.0 3.2 0.00 0.00 0.00 65 1003.5
20260906105003 20 17 1.6 4.8 0.00 0.00 0.00 64 1003.6
20260906104503 20 17 0.0 4.8 0.00 0.00 0.00 63 1003.7
20260906104003 20 17 0.0 1.6 0.00 0.00 0.00 63 1003.6
20260906103503 20 17 0.0 4.8 0.00 0.00 0.00 64 1003.7
20260906103002 20 17 0.0 4.8 0.00 0.00 0.00 64 1003.6
20260906102503 20 16 1.6 4.8 0.00 0.00 0.00 63 1003.5
20260906102002 20 16 1.6 6.4 0.00 0.00 0.00 64 1003.6
20260906101503 20 17 1.6 6.4 0.00 0.00 0.00 64 1003.6
20260906101002 20 17 0.0 4.8 0.00 0.00 0.00 64 1003.7
20260906100503 20 17 0.0 4.8 0.00 0.00 0.00 64 1003.7
20260906100002 20 17 1.6 4.8 0.00 0.00 0.00 63 1003.9
20260906095503 20 16 1.6 4.8 0.00 0.00 0.00 64 1003.9
20260906095002 20 16 1.6 6.4 0.00 0.00 0.00 63 1003.9
20260906094524 20 16 1.6 6.4 0.00 0.00 0.00 63 1003.8
20260906094003 20 17 3.2 4.8 0.00 0.00 0.00 62 1003.8
20260906093503 20 17 1.6 4.8 0.00 0.00 0.00 62 1003.9
20260906093003 20 22 1.6 3.2 0.00 0.00 0.00 61 1003.8
20260906092523 20 22 1.6 3.2 0.00 0.00 0.00 60 1003.7
20260906092003 21 22 0.0 3.2 0.00 0.00 0.00 60 1003.8
20260906091524 21 22 0.0 3.2 0.00 0.00 0.00 60 1003.7
20260906091003 21 23 0.0 3.2 0.00 0.00 0.00 60 1003.7
20260906090502 21 22 0.0 4.8 0.00 0.00 0.00 59 1003.5
20260906090003 21 22 1.6 6.4 0.00 0.00 0.00 59 1003.6
20260906085502 21 22 1.6 8.0 0.00 0.00 0.00 59 1003.5
20260906085003 21 19 1.6 9.7 0.00 0.00 0.00 59 1003.5
20260906084502 21 27 3.2 9.7 0.00 0.00 0.00 59 1003.5
20260906084003 21 37 1.6 6.4 0.00 0.00 0.00 60 1003.6
20260906083502 21 46 1.6 4.8 0.00 0.00 0.00 61 1003.6
20260906083003 20 64 1.6 4.8 0.00 0.00 0.00 60 1003.7
20260906082523 20 79 0.0 1.6 0.00 0.00 0.00 58 1003.7
20260906082003 20 79 0.0 1.6 0.00 0.00 0.00 57 1003.8
20260906081503 20 79 0.0 1.6 0.00 0.00 0.00 55 1003.6
20260906081003 21 79 0.0 0.0 0.00 0.00 0.00 54 1003.4
20260906080502 21 79 0.0 0.0 0.00 0.00 0.00 53 1003.3
20260906080024 21 79 0.0 1.6 0.00 0.00 0.00 53 1003.2
20260906075523 21 79 0.0 1.6 0.00 0.00 0.00 53 1003.1
20260906075024 21 79 0.0 0.0 0.00 0.00 0.00 53 1003.0
20260906074503 21 79 0.0 3.2 0.00 0.00 0.00 52 1002.9
20260906074003 21 79 0.0 3.2 0.00 0.00 0.00 51 1002.8
20260906073503 22 79 0.0 3.2 0.00 0.00 0.00 51 1002.8
20260906073002 22 79 1.6 4.8 0.00 0.00 0.00 52 1002.8
20260906072503 22 78 1.6 4.8 0.00 0.00 0.00 51 1002.7
20260906072002 22 45 0.0 6.4 0.00 0.00 0.00 50 1002.7
20260906071503 22 45 0.0 8.0 0.00 0.00 0.00 51 1002.6
20260906071003 22 44 3.2 8.0 0.00 0.00 0.00 51 1002.5
20260906070503 22 45 3.2 6.4 0.00 0.00 0.00 50 1002.5
20260906070003 22 46 3.2 8.0 0.00 0.00 0.00 50 1002.4
20260906065503 22 49 3.2 9.7 0.00 0.00 0.00 50 1002.4
20260906065003 22 51 3.2 9.7 0.00 0.00 0.00 50 1002.6
20260906064524 22 52 3.2 4.8 0.00 0.00 0.00 48 1002.6
20260906063502 23 55 0.0 9.7 0.00 0.00 0.00 47 1002.6
20260906063003 23 54 3.2 9.7 0.00 0.00 0.00 48 1002.7
20260906062502 23 56 4.8 9.7 0.00 0.00 0.00 47 1002.7
20260906062003 23 56 3.2 9.7 0.00 0.00 0.00 46 1002.7
20260906061502 23 56 3.2 4.8 0.00 0.00 0.00 46 1002.6
20260906061003 23 59 1.6 9.7 0.00 0.00 0.00 45 1002.7
20260906060502 23 59 3.2 9.7 0.00 0.00 0.00 45 1002.7
20260906060003 23 57 3.2 8.0 0.00 0.00 0.00 45 1002.7
20260906055502 23 57 4.8 8.0 0.00 0.00 0.00 45 1002.8
20260906055045 23 56 3.2 12.9 0.00 0.00 0.00 45 1002.9
20260906054545 23 66 6.4 12.9 0.00 0.00 0.00 44 1002.9
20260906054003 24 62 4.8 9.7 0.00 0.00 0.00 44 1003.0
20260906053502 24 61 6.4 9.7 0.00 0.00 0.00 44 1002.9
20260906053003 24 54 3.2 11.3 0.00 0.00 0.00 43 1003.0
20260906052524 24 58 4.8 11.3 0.00 0.00 0.00 44 1002.9
20260906052003 23 63 6.4 9.7 0.00 0.00 0.00 43 1003.1
20260906051502 23 62 4.8 8.0 0.00 0.00 0.00 43 1003.1
20260906051003 23 67 1.6 12.9 0.00 0.00 0.00 42 1003.1
20260906050502 23 62 4.8 12.9 0.00 0.00 0.00 42 1003.1
20260906050003 23 60 4.8 8.0 0.00 0.00 0.00 42 1003.0
20260906045502 23 55 4.8 9.7 0.00 0.00 0.00 41 1002.9
20260906045003 23 55 6.4 9.7 0.00 0.00 0.00 41 1002.9
20260906044503 23 55 3.2 6.4 0.00 0.00 0.00 41 1002.8
20260906044003 24 55 3.2 8.0 0.00 0.00 0.00 40 1002.7
20260906043503 25 56 6.4 8.0 0.00 0.00 0.00 40 1002.7
20260906043003 25 60 4.8 8.0 0.00 0.00 0.00 41 1002.6
20260906042524 25 61 4.8 6.4 0.00 0.00 0.00 41 1002.7
20260906042003 25 61 3.2 6.4 0.00 0.00 0.00 42 1002.7
20260906041503 25 61 4.8 6.4 0.00 0.00 0.00 42 1002.8
20260906041024 25 61 3.2 6.4 0.00 0.00 0.00 41 1002.9
20260906040503 25 62 3.2 8.0 0.00 0.00 0.00 40 1002.8
20260906040002 25 64 3.2 9.7 0.00 0.00 0.00 40 1002.8
20260906035503 25 61 3.2 9.7 0.00 0.00 0.00 37 1002.8
20260906035003 25 65 0.0 11.3 0.00 0.00 0.00 36 1003.0
20260906034503 25 64 3.2 11.3 0.00 0.00 0.00 37 1003.0
20260906034003 25 62 3.2 12.9 0.00 0.00 0.00 35 1003.0
20260906033503 25 64 6.4 14.5 0.00 0.00 0.00 34 1002.9
20260906033003 26 63 4.8 14.5 0.00 0.00 0.00 33 1002.8
20260906032503 26 263 0.0 0.0 0.00 0.00 0.00 33 1002.7
20260906032003 26 263 0.0 0.0 0.00 0.00 0.00 33 1002.7
20260906031502 26 263 0.0 0.0 0.00 0.00 0.00 33 1002.6
20260906031003 26 263 0.0 0.0 0.00 0.00 0.00 32 1002.6
20260906030502 26 263 0.0 0.0 0.00 0.00 0.00 32 1002.4
20260906030003 26 263 0.0 0.0 0.00 0.00 0.00 32 1002.3
20260906025502 26 263 0.0 0.0 0.00 0.00 0.00 32 1002.2
20260906025003 26 263 0.0 0.0 0.00 0.00 0.00 31 1002.1
20260906024503 26 263 0.0 0.0 0.00 0.00 0.00 32 1002.1
20260906024002 26 263 0.0 0.0 0.00 0.00 0.00 31 1002.0
20260906023503 27 263 0.0 0.0 0.00 0.00 0.00 30 1001.9
20260906023002 27 263 0.0 0.0 0.00 0.00 0.00 29 1001.7
20260906022524 27 263 0.0 9.7 0.00 0.00 0.00 28 1001.6
20260906022002 27 263 0.0 9.7 0.00 0.00 0.00 28 1001.6
20260906021503 28 262 4.8 6.4 0.00 0.00 0.00 27 1001.5
20260906021003 28 262 1.6 4.8 0.00 0.00 0.00 27 1001.3
20260906020502 29 261 0.0 0.0 0.00 0.00 0.00 26 1001.2
20260906020003 30 261 0.0 0.0 0.00 0.00 0.00 26 1001.2
20260906015502 30 262 0.0 0.0 0.00 0.00 0.00 26 1001.1
20260906015003 30 262 0.0 0.0 0.00 0.00 0.00 25 1001.0
20260906014524 31 261 0.0 0.0 0.00 0.00 0.00 25 1000.9
20260906014003 31 262 0.0 0.0 0.00 0.00 0.00 25 1001.0
20260906013502 31 262 0.0 0.0 0.00 0.00 0.00 25 1001.0
20260906013003 31 261 0.0 0.0 0.00 0.00 0.00 25 1000.8
20260906012523 31 261 0.0 4.8 0.00 0.00 0.00 24 1000.9
20260906012003 32 261 0.0 4.8 0.00 0.00 0.00 24 1000.9
20260906011503 32 229 3.2 4.8 0.00 0.00 0.00 24 1000.9
20260906011003 32 205 3.2 4.8 0.00 0.00 0.00 24 1001.0
20260906010502 32 203 1.6 6.4 0.00 0.00 0.00 23 1000.9
20260906010003 32 203 1.6 6.4 0.00 0.00 0.00 23 1000.9
20260906005503 33 200 1.6 6.4 0.00 0.00 0.00 22 1001.0
20260906005003 33 200 3.2 6.4 0.00 0.00 0.00 22 1001.0
20260906004503 33 200 3.2 8.0 0.00 0.00 0.00 22 1000.9
20260906004002 33 200 3.2 9.7 0.00 0.00 0.00 21 1000.9
20260906003503 33 201 4.8 14.5 0.00 0.00 0.00 21 1000.8
20260906003023 33 164 6.4 16.1 0.00 0.00 0.00 20 1000.8
20260906002503 33 151 8.0 16.1 0.00 0.00 0.00 21 1000.7
20260906002002 34 142 8.0 16.1 0.00 0.00 0.00 20 1000.6
20260906001503 33 148 6.4 9.7 0.00 0.00 0.00 19 1000.5
20260906001003 33 148 1.6 12.9 0.00 0.00 0.00 19 1000.4
20260906000503 33 148 4.8 43.5 0.00 0.00 0.00 19 1000.3
20260906000024 33 220 9.7 45.1 0.00 0.00 0.00 19 1000.4
20260905235502 32 232 25.7 45.1 0.00 0.00 0.00 20 1000.4
20260905235003 32 178 14.5 30.6 0.00 0.00 0.00 22 1000.6
20260905234502 32 209 19.3 30.6 0.00 0.00 0.00 22 1000.8
20260905234024 33 231 17.7 30.6 0.00 0.00 0.00 21 1000.9
20260905233502 33 193 4.8 9.7 0.00 0.00 0.00 21 1000.8
20260905233003 33 202 4.8 11.3 0.00 0.00 0.00 21 1000.7
20260905232524 33 192 4.8 17.7 0.00 0.00 0.00 21 1000.6
20260905232023 33 187 8.0 17.7 0.00 0.00 0.00 20 1000.6
20260905231503 33 165 6.4 16.1 0.00 0.00 0.00 21 1000.6
20260905231003 33 197 4.8 24.1 0.00 0.00 0.00 21 1000.6
20260905230503 33 175 16.1 24.1 0.00 0.00 0.00 20 1000.5
20260905230003 33 167 14.5 37.0 0.00 0.00 0.00 20 1000.4
20260905225502 34 158 22.5 37.0 0.00 0.00 0.00 20 1000.5
20260905225003 34 134 8.0 16.1 0.00 0.00 0.00 20 1000.5
20260905224502 34 127 8.0 14.5 0.00 0.00 0.00 19 1000.5
20260905224003 34 142 6.4 14.5 0.00 0.00 0.00 19 1000.4
20260905223503 35 177 8.0 14.5 0.00 0.00 0.00 19 1000.4
20260905223003 35 179 6.4 14.5 0.00 0.00 0.00 19 1000.3
20260905222503 35 177 4.8 14.5 0.00 0.00 0.00 19 1000.3
20260905222002 35 149 6.4 16.1 0.00 0.00 0.00 19 1000.3
20260905221503 35 165 6.4 19.3 0.00 0.00 0.00 19 1000.4
20260905221003 35 131 6.4 19.3 0.00 0.00 0.00 18 1000.4
20260905220503 35 164 8.0 19.3 0.00 0.00 0.00 18 1000.3
20260905220003 35 162 4.8 24.1 0.00 0.00 0.00 18 1000.5
20260905215503 36 133 11.3 24.1 0.00 0.00 0.00 18 1000.4
20260905215002 36 187 6.4 14.5 0.00 0.00 0.00 17 1000.4
20260905214503 36 247 1.6 14.5 0.00 0.00 0.00 17 1000.5
20260905214003 36 235 8.0 14.5 0.00 0.00 0.00 18 1000.5
20260905213503 36 168 1.6 14.5 0.00 0.00 0.00 18 1000.5